This is the latest recevied weather packets stored in our database for station/object KB1QVF. If no packets are shown the sender has not sent any weather packets the latest 10 day(s).
| Time | Temp. | Humidity | Pressure | Rain* | Wind** | Luminosity | Snow |
|---|---|---|---|---|---|---|---|
| 1777977572 | 11.67° C | 85% | 1012.8 hPa | 0 mm | - | 60 W/m² | - |
| 1777977270 | 11.11° C | 86% | 1012.9 hPa | 0 mm | - | 56 W/m² | - |
| 1777976967 | 11.11° C | 86% | 1013 hPa | 0 mm | - | 51 W/m² | - |
| 1777976664 | 11.11° C | 87% | 1012.4 hPa | 0 mm | - | 47 W/m² | - |
| 1777976361 | 11.11° C | 87% | 1012.6 hPa | 0 mm | - | 41 W/m² | - |
| 1777976061 | 11.11° C | 88% | 1012.5 hPa | 0 mm | - | 34 W/m² | - |
| 1777975757 | 10.56° C | 88% | 1012.3 hPa | 0 mm | - | 27 W/m² | - |
| 1777975454 | 10.56° C | 88% | 1012.4 hPa | 0 mm | - | 20 W/m² | - |
| 1777975149 | 10.56° C | 88% | 1012.5 hPa | 0 mm | - | 15 W/m² | - |
| 1777974847 | 10.56° C | 87% | 1012.2 hPa | 0 mm | - | 10 W/m² | - |
| 1777974543 | 10.56° C | 87% | 1012.3 hPa | 0 mm | - | 7 W/m² | - |
| 1777974240 | 10.56° C | 87% | 1012.4 hPa | 0 mm | - | 4 W/m² | - |
| 1777973935 | 10.56° C | 87% | 1012.5 hPa | 0 mm | - | 2 W/m² | - |
| 1777973633 | 10.56° C | 87% | 1012.3 hPa | 0 mm | - | 1 W/m² | - |
| 1777973330 | 10.56° C | 88% | 1012.2 hPa | 0 mm | - | 1 W/m² | - |
| 1777973028 | 10.56° C | 88% | 1012.3 hPa | 0 mm | - | 0 W/m² | - |
| 1777972725 | 10.56° C | 89% | 1012.5 hPa | 0 mm | - | 0 W/m² | - |
| 1777972423 | 10.56° C | 89% | 1012.3 hPa | 0 mm | - | 0 W/m² | - |
| 1777972121 | 10° C | 90% | 1012.4 hPa | 0 mm | - | 0 W/m² | - |
| 1777971819 | 10° C | 90% | 1012.4 hPa | 0 mm | - | 0 W/m² | - |
| 1777971516 | 10° C | 90% | 1012.4 hPa | 0 mm | - | 0 W/m² | - |
| 1777971214 | 9.44° C | 93% | 1012.6 hPa | 0 mm | - | 0 W/m² | - |
| 1777970911 | 9.44° C | 92% | 1012.6 hPa | 0 mm | - | 0 W/m² | - |
| 1777970609 | 8.89° C | 93% | 1012.6 hPa | 0 mm | - | 0 W/m² | - |
| 1777970306 | 8.89° C | 93% | 1012.6 hPa | 0 mm | - | 0 W/m² | - |
* Rain latest hour (hover to see other rain measurements)
** Current wind speed in m/s (hover to see current wind gust speed)